EN

Hourly Weather Pali

Today, 28 February, Sunday

Time Temperature Precipitation Wind Pressure Humidity
00:00 +23°C° 0 mm 1 mps 717 mmHg 25%
01:00 +23°C° 0 mm 1 mps 717 mmHg 25%
02:00 +23°C° 0 mm 2 mps 716 mmHg 26%
03:00 +23°C° 0 mm 1 mps 716 mmHg 26%
04:00 +23°C° 0 mm 1 mps 716 mmHg 26%
05:00 +23°C° 0 mm 1 mps 716 mmHg 27%
06:00 +25°C° 0 mm 1 mps 717 mmHg 25%
07:00 +27°C° 0 mm 1 mps 718 mmHg 23%
08:00 +29°C° 0 mm 1 mps 719 mmHg 21%
09:00 +32°C° 0 mm 2 mps 719 mmHg 19%
10:00 +35°C° 0 mm 3 mps 719 mmHg 16%
11:00 +37°C° 0 mm 4 mps 719 mmHg 15%
12:00 +37°C° 0 mm 5 mps 718 mmHg 14%
13:00 +39°C° 0 mm 5 mps 718 mmHg 13%
14:00 +39°C° 0 mm 5 mps 717 mmHg 13%
15:00 +37°C° 0 mm 5 mps 716 mmHg 13%
16:00 +36°C° 0 mm 4 mps 716 mmHg 14%
17:00 +35°C° 0 mm 3 mps 716 mmHg 14%
18:00 +31°C° 0 mm 3 mps 716 mmHg 16%
19:00 +29°C° 0 mm 2 mps 717 mmHg 18%
20:00 +26°C° 0 mm 2 mps 718 mmHg 21%
21:00 +26°C° 0 mm 1 mps 718 mmHg 22%
22:00 +25°C° 0 mm 1 mps 718 mmHg 22%
23:00 +24°C° 0 mm 1 mps 718 mmHg 23%

Tomorrow, 1 March, Monday

Time Temperature Precipitation Wind Pressure Humidity
00:00 +24°C° 0 mm 1 mps 718 mmHg 23%
01:00 +23°C° 0 mm 1 mps 717 mmHg 24%
02:00 +20°C° 0 mm 0 mps 717 mmHg 24%
03:00 +20°C° 0 mm 0 mps 717 mmHg 25%
04:00 +20°C° 0 mm 0 mps 717 mmHg 26%
05:00 +20°C° 0 mm 0 mps 717 mmHg 27%
06:00 +24°C° 0 mm 1 mps 718 mmHg 24%
07:00 +26°C° 0 mm 1 mps 719 mmHg 22%
08:00 +28°C° 0 mm 1 mps 720 mmHg 20%
09:00 +31°C° 0 mm 2 mps 720 mmHg 18%
10:00 +34°C° 0 mm 3 mps 721 mmHg 15%
11:00 +37°C° 0 mm 3 mps 721 mmHg 13%
12:00 +37°C° 0 mm 4 mps 720 mmHg 12%
13:00 +39°C° 0 mm 5 mps 719 mmHg 11%
14:00 +39°C° 0 mm 5 mps 718 mmHg 11%
15:00 +37°C° 0 mm 5 mps 718 mmHg 11%
16:00 +36°C° 0 mm 4 mps 718 mmHg 12%
17:00 +35°C° 0 mm 4 mps 718 mmHg 12%
18:00 +33°C° 0 mm 3 mps 718 mmHg 14%
19:00 +29°C° 0 mm 2 mps 719 mmHg 15%
20:00 +27°C° 0 mm 1 mps 719 mmHg 17%
21:00 +26°C° 0 mm 1 mps 719 mmHg 18%
22:00 +25°C° 0 mm 1 mps 719 mmHg 18%
23:00 +24°C° 0 mm 1 mps 719 mmHg 19%

Day after tomorrow, 2 March, Tuesday

Time Temperature Precipitation Wind Pressure Humidity
00:00 +24°C° 0 mm 1 mps 719 mmHg 19%
01:00 +23°C° 0 mm 1 mps 719 mmHg 20%
02:00 +22°C° 0 mm 1 mps 718 mmHg 20%
03:00 +19°C° 0 mm 0 mps 718 mmHg 22%
04:00 +18°C° 0 mm 0 mps 718 mmHg 23%
05:00 +17°C° 0 mm 0 mps 718 mmHg 24%
06:00 +20°C° 0 mm 0 mps 719 mmHg 22%
07:00 +23°C° 0 mm 0 mps 720 mmHg 20%
08:00 +28°C° 0 mm 1 mps 721 mmHg 17%
09:00 +30°C° 0 mm 1 mps 721 mmHg 15%
10:00 +32°C° 0 mm 2 mps 721 mmHg 13%
11:00 +36°C° 0 mm 2 mps 721 mmHg 10%
12:00 +36°C° 0 mm 3 mps 720 mmHg 9%
13:00 +37°C° 0 mm 3 mps 720 mmHg 8%
14:00 +38°C° 0 mm 4 mps 719 mmHg 7%
15:00 +36°C° 0 mm 3 mps 719 mmHg 8%
16:00 +35°C° 0 mm 3 mps 718 mmHg 8%
17:00 +34°C° 0 mm 2 mps 718 mmHg 9%
18:00 +30°C° 0 mm 2 mps 718 mmHg 10%
19:00 +27°C° 0 mm 1 mps 719 mmHg 11%
20:00 +24°C° 0 mm 1 mps 719 mmHg 12%
21:00 +23°C° 0 mm 1 mps 719 mmHg 13%
22:00 +20°C° 0 mm 0 mps 719 mmHg 14%
23:00 +19°C° 0 mm 0 mps 719 mmHg 14%

3 March, Wednesday

Time Temperature Precipitation Wind Pressure Humidity
00:00 +19°C° 0 mm 0 mps 718 mmHg 14%
01:00 +18°C° 0 mm 0 mps 718 mmHg 15%
02:00 +18°C° 0 mm 0 mps 718 mmHg 15%
03:00 +17°C° 0 mm 0 mps 718 mmHg 15%
04:00 +17°C° 0 mm 0 mps 718 mmHg 16%
05:00 +16°C° 0 mm 0 mps 717 mmHg 16%
06:00 +20°C° 0 mm 0 mps 719 mmHg 14%
07:00 +23°C° 0 mm 0 mps 720 mmHg 12%
08:00 +26°C° 0 mm 0 mps 721 mmHg 11%
09:00 +30°C° 0 mm 1 mps 721 mmHg 9%
10:00 +32°C° 0 mm 1 mps 721 mmHg 8%
11:00 +35°C° 0 mm 2 mps 720 mmHg 6%
12:00 +36°C° 0 mm 2 mps 720 mmHg 5%
13:00 +37°C° 0 mm 3 mps 719 mmHg 5%
14:00 +38°C° 0 mm 3 mps 719 mmHg 4%
15:00 +36°C° 0 mm 3 mps 718 mmHg 5%
16:00 +35°C° 0 mm 2 mps 718 mmHg 6%
17:00 +34°C° 0 mm 2 mps 718 mmHg 6%
18:00 +30°C° 0 mm 2 mps 718 mmHg 7%
19:00 +27°C° 0 mm 1 mps 718 mmHg 8%
20:00 +24°C° 0 mm 1 mps 719 mmHg 9%
21:00 +23°C° 0 mm 1 mps 719 mmHg 10%
22:00 +22°C° 0 mm 1 mps 718 mmHg 10%
23:00 +20°C° 0 mm 0 mps 718 mmHg 10%

4 March, Thursday

Time Temperature Precipitation Wind Pressure Humidity
00:00 +19°C° 0 mm 0 mps 718 mmHg 10%
01:00 +21°C° 0 mm 1 mps 718 mmHg 11%
02:00 +21°C° 0 mm 1 mps 717 mmHg 11%
03:00 +20°C° 0 mm 1 mps 717 mmHg 11%
04:00 +18°C° 0 mm 0 mps 717 mmHg 11%
05:00 +17°C° 0 mm 0 mps 717 mmHg 11%
06:00 +20°C° 0 mm 0 mps 718 mmHg 10%
07:00 +26°C° 0 mm 1 mps 719 mmHg 9%
08:00 +29°C° 0 mm 1 mps 720 mmHg 7%
09:00 +32°C° 0 mm 1 mps 720 mmHg 6%
10:00 +35°C° 0 mm 1 mps 720 mmHg 5%
11:00 +39°C° 0 mm 1 mps 721 mmHg 4%
12:00 +39°C° 0 mm 2 mps 720 mmHg 4%
13:00 +39°C° 0 mm 3 mps 719 mmHg 4%
14:00 +40°C° 0 mm 4 mps 718 mmHg 4%
15:00 +38°C° 0 mm 4 mps 718 mmHg 4%
16:00 +37°C° 0 mm 3 mps 717 mmHg 5%
17:00 +35°C° 0 mm 3 mps 717 mmHg 6%
18:00 +31°C° 0 mm 2 mps 717 mmHg 7%
19:00 +28°C° 0 mm 1 mps 718 mmHg 8%
20:00 +23°C° 0 mm 0 mps 718 mmHg 10%
21:00 +22°C° 0 mm 0 mps 718 mmHg 10%
22:00 +22°C° 0 mm 0 mps 718 mmHg 11%
23:00 +21°C° 0 mm 0 mps 718 mmHg 11%

5 March, Friday

Time Temperature Precipitation Wind Pressure Humidity
00:00 +23°C° 0 mm 1 mps 718 mmHg 11%
01:00 +22°C° 0 mm 1 mps 717 mmHg 11%
02:00 +22°C° 0 mm 1 mps 717 mmHg 11%
03:00 +21°C° 0 mm 1 mps 717 mmHg 12%
04:00 +19°C° 0 mm 0 mps 717 mmHg 12%
05:00 +18°C° 0 mm 0 mps 717 mmHg 12%
06:00 +22°C° 0 mm 0 mps 718 mmHg 11%
07:00 +25°C° 0 mm 0 mps 719 mmHg 9%
08:00 +28°C° 0 mm 0 mps 720 mmHg 8%
09:00 +33°C° 0 mm 1 mps 720 mmHg 7%
10:00 +35°C° 0 mm 1 mps 720 mmHg 6%
11:00 +39°C° 0 mm 2 mps 720 mmHg 5%
12:00 +39°C° 0 mm 3 mps 719 mmHg 5%
13:00 +40°C° 0 mm 4 mps 718 mmHg 4%
14:00 +41°C° 0 mm 5 mps 717 mmHg 4%
15:00 +38°C° 0 mm 4 mps 717 mmHg 4%
16:00 +37°C° 0 mm 4 mps 717 mmHg 5%
17:00 +36°C° 0 mm 4 mps 716 mmHg 5%
18:00 +33°C° 0 mm 3 mps 717 mmHg 7%
19:00 +28°C° 0 mm 2 mps 717 mmHg 8%
20:00 +25°C° 0 mm 2 mps 717 mmHg 10%
21:00 +24°C° 0 mm 1 mps 717 mmHg 11%
22:00 +24°C° 0 mm 1 mps 717 mmHg 12%
23:00 +23°C° 0 mm 1 mps 717 mmHg 12%
Show more

We Need Your Consent

Meteoprog and our Service Providers may store and access personal data such as cookies, device identifiers or other similar technologies on your device and process such data to personalise content and ads, as well as provide social media features and to analyse the traffic.

  • Store and/or access information on your device

    Cookies, device identifiers or other information can be stored or accessed on your device for the purposes indicated above.

  • Personalised ads and content, ad and content measurement, audience insights, and products development

    Ads and content can be personalised based on a profile. More data can be added to better personalise ads and content. Ad and content performance can be measured. Insights about the audience who saw the ads and content can be derived. Such data can be used to develop or improve user’s experience, systems and software.

By clicking ‘I Agree’ you will allow the use of indicated cookies, device identifiers, web beacons or other similar technologies. Your settings can be changed in the browser on your device.

For certain purposes, legitimate interests may be relied on, rather than consent. You can read more about this in our Privacy and Cookie Policy.